Address 0x425f686d09b3c170145de6c0ee1a9bf1ec11015f

 

Overview

Balance:
0.0002063244170656 BNB

BNB Value:
$0.06 (@ $283.42/BNB)
 
Txn Hash
Block
From
To
Value [Txn Fee]
0x24d22ac928d79cf5df371bf449cdf3e7d27b66edd97f2406143a66b51b104ab385471652021-06-23 12:33:0030 days 6 hrs ago0x425f686d09b3c170145de6c0ee1a9bf1ec11015fOUT 0xd30e25a8beac6e4e69eeed90ff94a9105b5a08b80 BNB0.00018042
0x270778289549f301bc5b362c2b5259e0dd0cb7ef0b833ba532ccf2fbb815df4985470902021-06-23 12:29:1530 days 6 hrs ago0x5176e440de36570cc5a377a9621e4988a51cdbcb IN 0x425f686d09b3c170145de6c0ee1a9bf1ec11015f0.000104014188102 BNB0.000105
0x6f2cd05fd026e8751ce8f11934bc605f7d4558b1775865935914b2333bd153e685469882021-06-23 12:24:0930 days 6 hrs ago0x568709f94db84c80429059748d0510cd568465e0 IN 0x425f686d09b3c170145de6c0ee1a9bf1ec11015f0.000282730228963 BNB0.000105
0x209e975509f47b70329fdad9d2048cf4181a160dd19e3b2346dbc4514613874e85194662021-06-22 13:18:5331 days 5 hrs ago0x425f686d09b3c170145de6c0ee1a9bf1ec11015fOUT0x568709f94db84c80429059748d0510cd568465e00.012894383977704 BNB0.000105
0x2b7249a8f8686b539b35f1e68e439effa81ed386b37785b78a56196299bf47a285194502021-06-22 13:18:0531 days 5 hrs ago0x425f686d09b3c170145de6c0ee1a9bf1ec11015fOUT PancakeSwap: Router v20 BNB0.000601525
0x2dfbaaafc8cc5b6fb039c38c5ae2684aaed7e6f7a5bb5deb0f67636c95268be485194332021-06-22 13:17:1431 days 5 hrs ago0xcff356d3c5c9424deb0d084aadaccb441ee62c01 IN 0x425f686d09b3c170145de6c0ee1a9bf1ec11015f0.001695907614283 BNB0.000105
0x9d6bddfc97d03d521010f650677e0e8a925bb878f3f27e5aa780fb03681d110c84951342021-06-21 16:54:5632 days 1 hr ago0x425f686d09b3c170145de6c0ee1a9bf1ec11015fOUT0x36547c9716da608b4c8e5adcf2e63763584519920.003629207614283 BNB0.000105
0x300459ee50c98efd9ab0a8fefbfa2b7e58e8cc90616b467d1cbb12fd6b4485b384949682021-06-21 16:46:3832 days 2 hrs ago0x425f686d09b3c170145de6c0ee1a9bf1ec11015fOUT 0x2f12c53537c70090a1340a573699cc7c3a4b50980 BNB0.000312065
0x7d861c920bb41ae0e357f9c5e0b11c0ff06b177ca0ddf71c0b9a029501df804884949492021-06-21 16:45:4132 days 2 hrs ago0x568709f94db84c80429059748d0510cd568465e0 IN 0x425f686d09b3c170145de6c0ee1a9bf1ec11015f0.004046272614283 BNB0.000105
0xb8a786a1ef1a5949bb038f8bcce22e80aeb5ab2187276d52eacd39d3ece17c2d84612582021-06-20 12:38:5933 days 6 hrs ago0x425f686d09b3c170145de6c0ee1a9bf1ec11015fOUT0x568709f94db84c80429059748d0510cd568465e00.00846797927845 BNB0.000105
0x5deaa810219070b290f167cb7109549a90dcb621d227f95b05580c6f38f6723084400732021-06-19 18:58:1633 days 23 hrs ago0x425f686d09b3c170145de6c0ee1a9bf1ec11015fOUT PancakeSwap: Router v20.010525659341934 BNB0.00063571
0xb7d43ba9de8b750895658203df469c3733f6614fbda20d6fb6b86be5516c569f84400222021-06-19 18:55:4333 days 23 hrs ago0x425f686d09b3c170145de6c0ee1a9bf1ec11015fOUT PancakeSwap: Router v20 BNB0.000676465
0xeee49ce5b3568ce32fc66935139e27fa5b464fd6397afba0146f2671b6c93a4e84400152021-06-19 18:55:2233 days 23 hrs ago0x425f686d09b3c170145de6c0ee1a9bf1ec11015fOUT 0x4d50471035d65810cdb9b34550d46b31bf398cb80 BNB0.000221565
0xefa99bc7c93e110c86aff399bbb4c3213de74366ba6f67194874c0e137978eb384396122021-06-19 18:35:0034 days 14 mins ago0x425f686d09b3c170145de6c0ee1a9bf1ec11015fOUT 0x8031b32949e39d6a0e980c1770800a819252397a0 BNB0.000221615
0x89e55633f4803413c8563f986a664e0b6e9d7da14b4cad884b04003d9afba69584378452021-06-19 17:06:2134 days 1 hr ago0x425f686d09b3c170145de6c0ee1a9bf1ec11015fOUT PancakeSwap: Router v20.006010859693746 BNB0.00063727
0xa4a9551604efec1f22fcb698e0c9cd515e473f58a322bb98e0a7b7058b1779b484378222021-06-19 17:05:1234 days 1 hr ago0xf04414b07dc8f4e88d6e9184c13c67357b05f917 IN 0x425f686d09b3c170145de6c0ee1a9bf1ec11015f0.023570037197964 BNB0.000105
0x0ef52fd4f83e1bde0937d1aec71e2b2d6a7a5c8e353ac03fea87ea32a181340184375992021-06-19 16:54:0334 days 1 hr ago0x425f686d09b3c170145de6c0ee1a9bf1ec11015fOUT PancakeSwap: Router v20.005522899553779 BNB0.00071227
0x357d024ea2594d9a393d401149efcc3d50dd3959edc7dd59d7dad27d8db9566684342722021-06-19 14:04:4334 days 4 hrs ago0x425f686d09b3c170145de6c0ee1a9bf1ec11015fOUT0xf04414b07dc8f4e88d6e9184c13c67357b05f9170.02 BNB0.000105
0xdcd0c4cd23e980ba0014c73eb26e65970bcce604e54b13620acdec90da6d787f84283532021-06-19 9:03:1334 days 9 hrs ago0x425f686d09b3c170145de6c0ee1a9bf1ec11015fOUT PancakeSwap: Router v20 BNB0.00061418
0xa1d4f0407b2eb311460673fe782323b52a5f017d4d9965ea34ac7aa4fb9b285184281892021-06-19 8:55:0134 days 9 hrs ago0x425f686d09b3c170145de6c0ee1a9bf1ec11015fOUT PancakeSwap: Router v20 BNB0.00068912
0x8139b7fc64e5f3d2e0b7d69ce8172229f8aae747b65099b97a5c31256e2f356884258862021-06-19 6:59:4734 days 11 hrs ago0x425f686d09b3c170145de6c0ee1a9bf1ec11015fOUT0x4416d14a2e8c6b15904a02db5eb09c099d82a3910.007 BNB0.000105
0xa41f5044476d0d20565b8c6d806739be9143c13d2a3fc57bf790a4e543356aa684258622021-06-19 6:58:3534 days 11 hrs ago0x425f686d09b3c170145de6c0ee1a9bf1ec11015fOUT 0x4d50471035d65810cdb9b34550d46b31bf398cb80 BNB0.00031131
0x81cc8ccbd6295b973f44829ac1ec6999402413a2b7ee248c64c938b6181ef28c84258272021-06-19 6:56:5034 days 11 hrs ago0x425f686d09b3c170145de6c0ee1a9bf1ec11015fOUT PancakeSwap: Router v20 BNB0.00068912
0x7acc0346fadc59cfe02ffdeedb63105c422ccac509e5024d36de3fb9ec0e270984258202021-06-19 6:56:2934 days 11 hrs ago0x425f686d09b3c170145de6c0ee1a9bf1ec11015fOUT 0xa97ada2fe8f69e670e199cf41af720606d8d3fbd0 BNB0.000222545
0x7be1ee7325efce80ba3cea9a04e21f3fb3798a0d6ba4527ba12d9d9cba61766b84231192021-06-19 4:41:0434 days 14 hrs ago0x5176e440de36570cc5a377a9621e4988a51cdbcb IN 0x425f686d09b3c170145de6c0ee1a9bf1ec11015f0.00065972097047 BNB0.000105
[ Download CSV Export 
Latest 9 internal transactions
Parent Txn Hash Block From To Value
0x2b7249a8f8686b539b35f1e68e439effa81ed386b37785b78a56196299bf47a285194502021-06-22 13:18:0531 days 5 hrs ago PancakeSwap: Router v20x425f686d09b3c170145de6c0ee1a9bf1ec11015f0.011905001363421423 BNB
0x5deaa810219070b290f167cb7109549a90dcb621d227f95b05580c6f38f6723084400732021-06-19 18:58:1633 days 23 hrs ago PancakeSwap: Router v20x425f686d09b3c170145de6c0ee1a9bf1ec11015f0.000052366464387732 BNB
0xb7d43ba9de8b750895658203df469c3733f6614fbda20d6fb6b86be5516c569f84400222021-06-19 18:55:4333 days 23 hrs ago PancakeSwap: Router v20x425f686d09b3c170145de6c0ee1a9bf1ec11015f0.003421310797613782 BNB
0x89e55633f4803413c8563f986a664e0b6e9d7da14b4cad884b04003d9afba69584378452021-06-19 17:06:2134 days 1 hr ago PancakeSwap: Router v20x425f686d09b3c170145de6c0ee1a9bf1ec11015f0.000029904774595752 BNB
0x0ef52fd4f83e1bde0937d1aec71e2b2d6a7a5c8e353ac03fea87ea32a181340184375992021-06-19 16:54:0334 days 1 hr ago PancakeSwap: Router v20x425f686d09b3c170145de6c0ee1a9bf1ec11015f0.000027477112207859 BNB
0xdcd0c4cd23e980ba0014c73eb26e65970bcce604e54b13620acdec90da6d787f84283532021-06-19 9:03:1334 days 9 hrs ago PancakeSwap: Router v20x425f686d09b3c170145de6c0ee1a9bf1ec11015f0.014300325592891789 BNB
0xa1d4f0407b2eb311460673fe782323b52a5f017d4d9965ea34ac7aa4fb9b285184281892021-06-19 8:55:0134 days 9 hrs ago PancakeSwap: Router v20x425f686d09b3c170145de6c0ee1a9bf1ec11015f0.01241175564379688 BNB
0x81cc8ccbd6295b973f44829ac1ec6999402413a2b7ee248c64c938b6181ef28c84258272021-06-19 6:56:5034 days 11 hrs ago PancakeSwap: Router v20x425f686d09b3c170145de6c0ee1a9bf1ec11015f0.008479039852716279 BNB
0xc9cb1491e0420240a03297efaa95ac3a861fa8f8f28c788838f8141e4ad0d1f084075972021-06-18 15:37:0735 days 3 hrs ago PancakeSwap: Router v20x425f686d09b3c170145de6c0ee1a9bf1ec11015f0.010040858350508187 BNB
[ Download CSV Export 
Loading

Contract Name:
0 BNB

Compiler Version
0

Optimization Enabled:
0 BNB

Other Settings:
-NA-
Block Transaction Gas Used Reward
Age Block Fee Address BC Fee Address Voting Power Jailed Incoming
Block Uncle Number Difficulty Gas Used Reward
Loading
Loading
Make sure to use the "Vote Down" button for any spammy posts, and the "Vote Up" for interesting conversations.